Hourly Data Report for October 05, 2017

All times are specified in Local Standard Time (LST). Add 1 hour to adjust for Daylight Saving Time where and when it is observed.

PRINCE RUPERT
BRITISH COLUMBIA

54°17'10.000" N
130°26'41.000" W
35.40 m
1066482
71022
YPR

Download Data

Hourly Data (October 2017)
Hourly Data Report for October 5, 2017
Temp Definition
°C
Dew Point Temp Definition
°C
Rel Hum Definition
%
Wind Dir Definition
10's deg

Wind Spd Definition
km/h
Visibility Definition
km
Stn Press Definition
kPa
Hmdx Definition


Wind Chill Definition


Weather Definition


TIME
00:00 Legend Double Dagger 5.9 5.3 96 7 9 16.1 101.75     LegendNANA
01:00 Legend Double Dagger 5.9 5.3 96 9 13 16.1 101.72     LegendNANA
02:00 Legend Double Dagger 3.9 3.2 95   0 16.1 101.73     LegendNANA
03:00 Legend Double Dagger 3.6 3.0 96 5 9 16.1 101.72     LegendNANA
04:00 Legend Double Dagger 5.2 4.5 95 7 13 16.1 101.70     LegendNANA
05:00 Legend Double Dagger 5.0 4.1 94 7 17 16.1 101.64     LegendNANA
06:00 Legend Double Dagger 4.5 3.4 92 9 5 16.1 101.63     LegendNANA
07:00 Legend Double Dagger 5.2 4.3 94 6 9 16.1 101.63     LegendNANA
08:00 Legend Double Dagger 5.9 4.2 89 3 8 16.1 101.64     LegendNANA
09:00 Legend Double Dagger 9.3 6.4 82 10 8 16.1 101.60     LegendNANA
10:00 Legend Double Dagger 10.9 6.0 72 LegendMM 4 16.1 101.56     LegendNANA
11:00 Legend Double Dagger 12.1 6.1 66 13 8 16.1 101.52     LegendNANA
12:00 Legend Double Dagger 12.2 5.4 63 16 11 16.1 101.47     LegendNANA
13:00 Legend Double Dagger 13.0 3.9 54 16 9 16.1 101.40     LegendNANA
14:00 Legend Double Dagger 13.3 5.1 58 15 9 16.1 101.32     LegendNANA
15:00 Legend Double Dagger 12.2 7.1 71 16 18 12.9 101.30     Rain
16:00 Legend Double Dagger 10.5 7.7 83 18 8 4.8 101.21     Rain
17:00 Legend Double Dagger 10.0 8.5 90 14 21 11.3 101.13     Rain
18:00 Legend Double Dagger 10.0 8.8 92 13 24 16.1 101.07     LegendNANA
19:00 Legend Double Dagger 10.1 8.9 92 15 26 16.1 101.02     LegendNANA
20:00 Legend Double Dagger 10.4 9.3 93 15 17 16.1 100.98     LegendNANA
21:00 Legend Double Dagger 10.2 9.3 94 14 18 16.1 100.94     LegendNANA
22:00 Legend Double Dagger 10.4 9.3 93 15 21 16.1 100.81     Rain
23:00 Legend Double Dagger 10.2 9.6 96 15 28 9.7 100.69     Rain,Fog

Notes on Data Quality.

Legend

  • E = Estimated
  • M = Missing
  • NA = Not Available
  • ‡ = Partner data that is not subject to review by the National Climate Archives
Date modified: